Flag for Germany Weather past 2 weeks in Kaarst, North Rhine-Westphalia, Germany

Now
63 °F

Partly cloudy.


Feels Like: 63 °F
Forecast: 54 / 66 °F
Wind: 10 mph from Southwest

Location: Monchengladbach Airport

Current Time: Jul 28, 2015 at 8:36:47 PM

Latest Report: Jul 28, 2015 at 7:20 PM


Visibility: N/A

Pressure: 29.74 "Hg

Humidity: 59%

Dew point: 48 °F

Location of KaarstLocation

Historic Weather in Kaarst — Graph

°F

Kaarst temperature yesterday

Maximum temperature yesterday: 70 °F (at 5:50 PM)
Minimum temperature yesterday: 61 °F (at 7:50 AM)
Average temperature yesterday: 64 °F

Past Weeks' High & Low Weather Summary

 TemperatureHumidityPressure
High90 °F (Jul 17, 4:50 PM)100% (Jul 13, 7:20 PM)30.12 "Hg (Jul 13, 7:20 PM)
Low55 °F (Jul 26, 7:50 AM)29% (Jul 17, 4:50 PM)29.50 "Hg (Jul 25, 7:50 AM)
Average69 °F69%29.90 "Hg
* Reported Jul 13 7:20 PM — Jul 28 7:20 PM, Kaarst, Weather by CustomWeather, © 2015

Note: Actual official high and low records may vary slightly from our data, if they occured in-between our weather recording intervals... More about our weather records

Advertising

Kaarst weather history for previous 24 hours

 ConditionsComfort  
Time TempWeatherWind HumidityBarometerVisibility
7:20 PM
Tue, Jul 28
63 °FPartly cloudy.10 mph59%29.74 "HgN/A
6:50 PM64 °FPartly cloudy.10 mph56%29.74 "HgN/A
6:20 PM64 °FPassing clouds.10 mph60%29.74 "HgN/A
5:50 PM64 °FPassing clouds.9 mph64%29.74 "HgN/A
5:20 PM63 °FPartly cloudy.16 mph68%29.74 "HgN/A
4:50 PM63 °FPassing clouds.18 mph64%29.74 "HgN/A
4:20 PM63 °FPassing clouds.21 mph64%29.74 "HgN/A
3:50 PM64 °FPartly cloudy.18 mph64%29.74 "HgN/A
3:20 PM63 °FPassing clouds.21 mph68%29.74 "HgN/A
2:50 PM61 °FPassing clouds.16 mph68%29.74 "HgN/A
2:20 PM61 °FPassing clouds.13 mph77%29.74 "HgN/A
1:50 PM59 °FPassing clouds.15 mph82%29.74 "HgN/A
1:20 PM59 °FScattered clouds.7 mph94%29.71 "HgN/A
12:50 PM57 °FLight rain. Partly sunny.18 mph94%29.74 "Hg5 mi
12:20 PM61 °FLight rain. Partly sunny.18 mph72%29.71 "Hg5 mi
11:50 AM63 °FScattered clouds.14 mph68%29.71 "HgN/A
11:20 AM63 °FScattered clouds.16 mph68%29.71 "HgN/A
10:50 AM63 °FScattered clouds.18 mph68%29.71 "HgN/A
10:20 AM63 °FPartly sunny.21 mph68%29.68 "HgN/A
9:50 AM63 °FPartly sunny.14 mph73%29.71 "HgN/A
9:20 AM61 °FPartly sunny.18 mph72%29.68 "HgN/A
8:50 AM59 °FScattered clouds.13 mph77%29.68 "HgN/A
8:20 AM59 °FBroken clouds.12 mph77%29.68 "HgN/A
7:50 AM59 °FBroken clouds.9 mph77%29.68 "HgN/A
8:20 PM
Mon, Jul 27
64 °FPassing clouds.8 mph78%29.62 "HgN/A
Weather by CustomWeather, © 2015

See weather overviewHow to use our weather pages